Weather History for KOTM - October, 2014

Change the Weather History Date:

Friday, October 31, 2014

  Actual Average Record
Temperature  
Mean Temperature 35 °F 47 °F  
Max Temperature 48 °F 57 °F 85 °F (1950)
Min Temperature 21 °F 37 °F 16 °F (1925)
Degree Days  
Heating Degree Days 30 18  
Month to date heating degree days 401 402  
Since 1 July heating degree days 535 524  
Cooling Degree Days 0 0  
Month to date cooling degree days 1 11  
Year to date cooling degree days 801 938  
Moisture  
Dew Point 22 °F    
Average Humidity 56    
Maximum Humidity 75    
Minimum Humidity 36    
Precipitation  
Precipitation 0.00 in 0.09 in 2.00 in (1900)
Month to date precipitation 3.51 2.83  
Year to date precipitation 38.96 33.32  
Sea Level Pressure  
Sea Level Pressure 30.39 in    
Wind  
Wind Speed 17 mph (NNW)    
Max Wind Speed 33 mph    
Max Gust Speed 41 mph    
Visibility 10 miles    
Events Rain , Snow    
T = Trace of Precipitation, MM = Missing Value Source: NWS Daily Summary

Daily Weather History Graph

Daily Weather History Graph

Search for Another Location

Airport or City:

Trip Planner

Search our weather history database for the weather conditions in past years. The results will help you decide how hot, cold, wet, or windy it might be!

Date:

Astronomy

Oct. 31, 2014 Rise Set
Actual Time 7:39 AM CDT 6:06 PM CDT
Civil Twilight 7:11 AM CDT 6:35 PM CDT
Nautical Twilight 6:38 AM CDT 7:07 PM CDT
Astronomical Twilight 6:06 AM CDT 7:39 PM CDT
Moon 2:24 PM CDT (10/31) 12:25 AM CDT (10/31)
Length of Visible Light 11h 24m
Length of Day
10h 26m
First Quarter, 57% of the Moon is Illuminated
Oct 31
First Quarter
Nov 6
Full
Nov 14
Last Quarter
Nov 22
New
Nov 29
First Quarter

Hourly Weather History & Observations

Time (CDT) Temp. Windchill Dew Point Humidity Pressure Visibility Wind Dir Wind Speed Gust Speed Precip Events Conditions
12:53 AM 48.0 °F - 37.0 °F 66% 30.19 in 10.0 mi North 19.6 mph 26.5 mph 0.00 in Rain Light Rain
1:30 AM 46.9 °F - 35.1 °F 63% 30.21 in 10.0 mi North 21.9 mph 35.7 mph 0.00 in Rain Light Rain
1:38 AM 46.0 °F 38.0 °F 34.0 °F 63% 30.21 in 10.0 mi North 21.9 mph 32.2 mph 0.00 in Rain Light Rain
1:53 AM 46.0 °F 37.6 °F 32.0 °F 58% 30.22 in 10.0 mi North 24.2 mph - 0.00 in Rain Light Rain
2:53 AM 42.1 °F 31.5 °F 30.0 °F 62% 30.25 in 10.0 mi North 28.8 mph 34.5 mph 0.00 in Rain Light Rain
3:53 AM 39.0 °F 28.8 °F 27.0 °F 62% 30.29 in 10.0 mi NNW 21.9 mph 34.5 mph 0.00 in   Overcast
4:53 AM 34.0 °F 21.0 °F 19.9 °F 56% 30.33 in 10.0 mi NNW 26.5 mph 34.5 mph N/A   Scattered Clouds
5:53 AM 30.9 °F 18.1 °F 14.0 °F 50% 30.37 in 10.0 mi North 21.9 mph 32.2 mph 0.00 in   Clear
6:53 AM 30.0 °F 18.3 °F 17.1 °F 59% 30.40 in 10.0 mi North 17.3 mph 28.8 mph N/A   Clear
7:53 AM 28.9 °F 15.8 °F 17.1 °F 61% 30.41 in 9.0 mi NNW 20.7 mph - 0.00 in Snow Light Snow
8:53 AM 30.9 °F 19.1 °F 18.0 °F 59% 30.43 in 10.0 mi NNW 18.4 mph - 0.00 in   Clear
9:53 AM 33.1 °F 21.2 °F 19.0 °F 56% 30.45 in 10.0 mi North 20.7 mph 28.8 mph N/A   Clear
10:53 AM 36.0 °F 24.7 °F 19.9 °F 52% 30.46 in 9.0 mi NNW 21.9 mph 27.6 mph 0.00 in Snow Light Snow
11:53 AM 37.9 °F 27.6 °F 21.0 °F 51% 30.46 in 9.0 mi North 20.7 mph - 0.00 in Snow Light Snow
12:53 PM 41.0 °F 32.5 °F 21.0 °F 45% 30.45 in 10.0 mi NNW 17.3 mph 26.5 mph 0.00 in Rain Light Rain
1:53 PM 42.1 °F 33.6 °F 19.9 °F 41% 30.44 in 10.0 mi NNW 18.4 mph 31.1 mph 0.00 in Rain Light Rain
2:53 PM 43.0 °F 34.8 °F 19.9 °F 40% 30.43 in 10.0 mi North 18.4 mph 26.5 mph 0.00 in Rain Light Rain
3:53 PM 42.8 °F 34.0 °F 19.4 °F 39% 30.41 in 10.0 mi North 20.7 mph 25.3 mph N/A Rain Light Rain
4:53 PM 42.1 °F 34.9 °F 18.0 °F 38% 30.44 in 10.0 mi North 13.8 mph - 0.00 in   Clear
5:53 PM 39.0 °F 31.8 °F 18.0 °F 43% 30.45 in 10.0 mi North 11.5 mph - N/A   Clear
6:53 PM 30.9 °F 23.5 °F 19.0 °F 61% 30.47 in 10.0 mi NNW 8.1 mph - N/A   Clear
7:53 PM 28.0 °F 20.0 °F 19.0 °F 69% 30.47 in 10.0 mi NNW 8.1 mph - N/A   Clear
8:53 PM 27.0 °F 18.7 °F 19.0 °F 72% 30.48 in 10.0 mi North 8.1 mph - N/A   Clear
9:53 PM 28.0 °F 20.0 °F 18.0 °F 66% 30.48 in 10.0 mi NNW 8.1 mph - N/A   Clear
10:53 PM 27.0 °F 19.5 °F 18.0 °F 69% 30.50 in 10.0 mi North 6.9 mph - N/A   Clear
11:53 PM 24.1 °F 15.2 °F 17.1 °F 75% 30.50 in 10.0 mi North 8.1 mph - N/A   Clear